• In Hungary
  • List of Countries
  • For 7 days
  • Water Temperature
  • Satellite Maps
  • Weather Map
  • News
  • Weather Widgets
  • user-avatar
    Login

    Hourly Weather Vereskunovo

    Today, 21 May, Monday

    Time Temperature Precipitation Wind Pressure Humidity
    00:00 +8°C° 0 mm 1 mps 754 mmHg 72%
    01:00 +8°C° 0 mm 1 mps 754 mmHg 74%
    02:00 +8°C° 0 mm 1 mps 754 mmHg 75%
    03:00 +8°C° 0 mm 1 mps 755 mmHg 74%
    04:00 +9°C° 0 mm 1 mps 755 mmHg 73%
    05:00 +10°C° 0 mm 1 mps 756 mmHg 71%
    06:00 +12°C° 0 mm 1 mps 756 mmHg 63%
    07:00 +15°C° 0 mm 1 mps 756 mmHg 55%
    08:00 +19°C° 0 mm 1 mps 756 mmHg 48%
    09:00 +20°C° 0 mm 1 mps 756 mmHg 43%
    10:00 +22°C° 0 mm 1 mps 756 mmHg 39%
    11:00 +23°C° 0 mm 1 mps 756 mmHg 35%
    12:00 +23°C° 0 mm 1 mps 756 mmHg 35%
    13:00 +24°C° 0 mm 1 mps 756 mmHg 34%
    14:00 +24°C° 0 mm 1 mps 756 mmHg 33%
    15:00 +23°C° 0 mm 1 mps 756 mmHg 36%
    16:00 +23°C° 0 mm 1 mps 756 mmHg 38%
    17:00 +22°C° 0 mm 1 mps 755 mmHg 41%
    18:00 +20°C° 0 mm 1 mps 755 mmHg 49%
    19:00 +18°C° 0 mm 1 mps 756 mmHg 57%
    20:00 +15°C° 0 mm 1 mps 756 mmHg 66%
    21:00 +14°C° 0 mm 1 mps 756 mmHg 69%
    22:00 +13°C° 0 mm 1 mps 756 mmHg 72%
    23:00 +12°C° 0 mm 1 mps 756 mmHg 75%

    Tomorrow, 22 May, Tuesday

    Time Temperature Precipitation Wind Pressure Humidity
    00:00 +11°C° 0 mm 1 mps 756 mmHg 77%
    01:00 +11°C° 0 mm 1 mps 757 mmHg 78%
    02:00 +10°C° 0 mm 1 mps 757 mmHg 80%
    03:00 +11°C° 0 mm 1 mps 757 mmHg 79%
    04:00 +11°C° 0 mm 1 mps 757 mmHg 77%
    05:00 +12°C° 0 mm 1 mps 757 mmHg 76%
    06:00 +14°C° 0 mm 2 mps 756 mmHg 67%
    07:00 +16°C° 0 mm 2 mps 756 mmHg 59%
    08:00 +18°C° 0 mm 3 mps 756 mmHg 50%
    09:00 +19°C° 0 mm 3 mps 756 mmHg 46%
    10:00 +20°C° 0 mm 3 mps 755 mmHg 42%
    11:00 +21°C° 0 mm 4 mps 755 mmHg 38%
    12:00 +21°C° 0 mm 4 mps 755 mmHg 41%
    13:00 +20°C° 0 mm 4 mps 754 mmHg 45%
    14:00 +20°C° 0 mm 4 mps 754 mmHg 49%
    15:00 +18°C° 0.2 mm 3 mps 753 mmHg 56%
    16:00 +17°C° 0.2 mm 3 mps 753 mmHg 64%
    17:00 +16°C° 0.2 mm 3 mps 753 mmHg 71%
    18:00 +15°C° 0 mm 2 mps 753 mmHg 76%
    19:00 +14°C° 0 mm 2 mps 752 mmHg 81%
    20:00 +13°C° 0 mm 2 mps 752 mmHg 86%
    21:00 +13°C° 0 mm 2 mps 752 mmHg 88%
    22:00 +12°C° 0 mm 2 mps 752 mmHg 89%
    23:00 +12°C° 0 mm 2 mps 752 mmHg 91%

    Day after tomorrow, 23 May, Wednesday

    Time Temperature Precipitation Wind Pressure Humidity
    00:00 +12°C° 0 mm 2 mps 752 mmHg 92%
    01:00 +12°C° 0 mm 2 mps 752 mmHg 94%
    02:00 +13°C° 0 mm 2 mps 751 mmHg 95%
    03:00 +13°C° 0 mm 2 mps 751 mmHg 95%
    04:00 +13°C° 0 mm 2 mps 751 mmHg 95%
    05:00 +13°C° 0 mm 2 mps 751 mmHg 94%
    06:00 +15°C° 0 mm 2 mps 751 mmHg 87%
    07:00 +16°C° 0 mm 2 mps 751 mmHg 80%
    08:00 +18°C° 0 mm 2 mps 751 mmHg 73%
    09:00 +19°C° 0 mm 2 mps 751 mmHg 66%
    10:00 +20°C° 0 mm 2 mps 750 mmHg 59%
    11:00 +21°C° 0 mm 3 mps 750 mmHg 52%
    12:00 +23°C° 0 mm 2 mps 750 mmHg 50%
    13:00 +24°C° 0 mm 2 mps 750 mmHg 47%
    14:00 +24°C° 0 mm 2 mps 749 mmHg 44%
    15:00 +23°C° 0.4 mm 2 mps 749 mmHg 51%
    16:00 +21°C° 0.4 mm 2 mps 749 mmHg 58%
    17:00 +20°C° 0.4 mm 2 mps 749 mmHg 66%
    18:00 +18°C° 0.5 mm 2 mps 749 mmHg 75%
    19:00 +16°C° 0.5 mm 1 mps 749 mmHg 83%
    20:00 +14°C° 0.5 mm 1 mps 749 mmHg 92%
    21:00 +14°C° 0.4 mm 1 mps 749 mmHg 93%
    22:00 +13°C° 0.4 mm 1 mps 749 mmHg 95%
    23:00 +12°C° 0.4 mm 1 mps 749 mmHg 96%

    24 May, Thursday

    Time Temperature Precipitation Wind Pressure Humidity
    00:00 +12°C° 0 mm 1 mps 749 mmHg 96%
    01:00 +12°C° 0 mm 1 mps 749 mmHg 96%
    02:00 +10°C° 0 mm 2 mps 749 mmHg 97%
    03:00 +12°C° 0 mm 2 mps 750 mmHg 96%
    04:00 +12°C° 0 mm 2 mps 750 mmHg 95%
    05:00 +12°C° 0 mm 2 mps 750 mmHg 94%
    06:00 +13°C° 0 mm 3 mps 750 mmHg 90%
    07:00 +14°C° 0 mm 3 mps 751 mmHg 86%
    08:00 +16°C° 0 mm 3 mps 751 mmHg 81%
    09:00 +15°C° 0.1 mm 4 mps 752 mmHg 81%
    10:00 +14°C° 0.1 mm 4 mps 752 mmHg 80%
    11:00 +14°C° 0.1 mm 4 mps 752 mmHg 80%
    12:00 +14°C° 0 mm 4 mps 753 mmHg 76%
    13:00 +14°C° 0 mm 4 mps 753 mmHg 72%
    14:00 +14°C° 0 mm 4 mps 753 mmHg 68%
    15:00 +14°C° 0 mm 4 mps 754 mmHg 64%
    16:00 +15°C° 0 mm 4 mps 754 mmHg 59%
    17:00 +15°C° 0 mm 4 mps 754 mmHg 55%
    18:00 +14°C° 0 mm 3 mps 755 mmHg 56%
    19:00 +12°C° 0 mm 3 mps 755 mmHg 58%
    20:00 +11°C° 0 mm 3 mps 756 mmHg 60%
    21:00 +10°C° 0 mm 3 mps 756 mmHg 58%
    22:00 +8°C° 0 mm 3 mps 757 mmHg 57%
    23:00 +7°C° 0 mm 3 mps 757 mmHg 55%

    25 May, Friday

    Time Temperature Precipitation Wind Pressure Humidity
    00:00 +7°C° 0 mm 3 mps 757 mmHg 58%
    01:00 +5°C° 0 mm 3 mps 758 mmHg 61%
    02:00 +4°C° 0 mm 3 mps 758 mmHg 64%
    03:00 +5°C° 0 mm 3 mps 759 mmHg 63%
    04:00 +5°C° 0 mm 3 mps 759 mmHg 63%
    05:00 +5°C° 0 mm 3 mps 760 mmHg 62%
    06:00 +8°C° 0 mm 3 mps 760 mmHg 56%
    07:00 +9°C° 0 mm 3 mps 760 mmHg 50%
    08:00 +11°C° 0 mm 3 mps 760 mmHg 44%
    09:00 +12°C° 0 mm 3 mps 760 mmHg 42%
    10:00 +13°C° 0 mm 3 mps 760 mmHg 39%
    11:00 +14°C° 0 mm 3 mps 760 mmHg 37%
    12:00 +16°C° 0 mm 3 mps 760 mmHg 36%
    13:00 +17°C° 0 mm 3 mps 760 mmHg 35%
    14:00 +17°C° 0 mm 3 mps 760 mmHg 35%
    15:00 +17°C° 0 mm 3 mps 760 mmHg 36%
    16:00 +17°C° 0 mm 2 mps 759 mmHg 37%
    17:00 +17°C° 0 mm 2 mps 759 mmHg 39%
    18:00 +15°C° 0 mm 2 mps 759 mmHg 47%
    19:00 +13°C° 0 mm 1 mps 759 mmHg 55%
    20:00 +11°C° 0 mm 1 mps 760 mmHg 63%
    21:00 +10°C° 0 mm 1 mps 760 mmHg 65%
    22:00 +9°C° 0 mm 1 mps 760 mmHg 66%
    23:00 +8°C° 0 mm 1 mps 760 mmHg 68%

    26 May, Saturday

    Time Temperature Precipitation Wind Pressure Humidity
    00:00 +8°C° 0 mm 1 mps 760 mmHg 68%
    01:00 +7°C° 0 mm 1 mps 761 mmHg 68%
    02:00 +6°C° 0 mm 0 mps 761 mmHg 68%
    03:00 +7°C° 0 mm 0 mps 761 mmHg 66%
    04:00 +7°C° 0 mm 0 mps 761 mmHg 64%
    05:00 +8°C° 0 mm 0 mps 761 mmHg 62%
    06:00 +11°C° 0 mm 0 mps 761 mmHg 56%
    07:00 +14°C° 0 mm 1 mps 761 mmHg 50%
    08:00 +16°C° 0 mm 1 mps 761 mmHg 44%
    09:00 +19°C° 0 mm 1 mps 761 mmHg 41%
    10:00 +20°C° 0 mm 1 mps 761 mmHg 38%
    11:00 +21°C° 0 mm 1 mps 761 mmHg 34%
    12:00 +22°C° 0 mm 1 mps 760 mmHg 34%
    13:00 +23°C° 0 mm 1 mps 760 mmHg 34%
    14:00 +23°C° 0 mm 1 mps 759 mmHg 34%
    15:00 +23°C° 0 mm 1 mps 759 mmHg 36%
    16:00 +22°C° 0 mm 1 mps 758 mmHg 37%
    17:00 +22°C° 0 mm 1 mps 758 mmHg 39%
    18:00 +19°C° 0 mm 1 mps 758 mmHg 47%
    19:00 +16°C° 0 mm 1 mps 757 mmHg 55%
    20:00 +14°C° 0 mm 1 mps 757 mmHg 62%
    21:00 +13°C° 0 mm 1 mps 757 mmHg 64%
    22:00 +12°C° 0 mm 1 mps 757 mmHg 66%
    23:00 +12°C° 0 mm 1 mps 757 mmHg 67%
    Show more